Simultaneous Nadir Overpasses (SNOs) Predictions

Prediction of SNOs between GOES-16 and METOP-B Satellite Orbit:

Table of predicted SNOs for the next 14.0 days since TLE Epoch: 12/17/2022
Index Date Time (GOES-16) GOES-16 Lat,Lon METOP-B Lat,Lon Distance(km) Time Diff (sec)
1 12/18/2022 02:49:51 0.04, -75.19 -0.93, -79.41 482.58 80
2 12/19/2022 02:26:32 0.04, -75.19 0.21, -74.43 86.86 80
3 12/20/2022 14:48:04 -0.04, -75.22 0.81, -78.99 430.02 80
4 12/21/2022 14:24:46 -0.04, -75.22 -0.33, -74.00 139.53 80
5 12/23/2022 02:46:26 0.03, -75.21 -0.72, -78.59 385.35 80
6 12/24/2022 02:23:07 0.03, -75.22 0.38, -73.60 184.24 80
7 12/25/2022 14:44:39 -0.03, -75.24 0.64, -78.16 332.35 80
8 12/26/2022 14:21:21 -0.03, -75.25 -0.52, -73.17 237.79 80
9 12/28/2022 02:43:01 0.02, -75.25 -0.53, -77.76 285.82 80
10 12/29/2022 02:19:41 0.02, -75.27 0.57, -72.77 284.85 80
11 12/30/2022 14:41:14 -0.02, -75.31 0.43, -77.33 230.03 80
